This is the latest recevied weather packets stored in our database for station/object HF3P-11. If no packets are shown the sender has not sent any weather packets the latest 10 day(s).
| Time | Temp. | Humidity | Pressure | Rain* | Wind** | Luminosity | Snow |
|---|---|---|---|---|---|---|---|
| 1787658299 | 21.67° C | 61% | 1012.6 hPa | 0 mm | - | - | - |
| 1787657999 | 21.11° C | 61% | 1012.6 hPa | 0 mm | - | - | - |
| 1787657708 | 21.11° C | 60% | 1012.8 hPa | 0 mm | - | - | - |
| 1787657408 | 21.11° C | 62% | 1012.6 hPa | 0 mm | - | - | - |
| 1787657099 | 21.11° C | 61% | 1012.9 hPa | 0 mm | - | - | - |
| 1787656807 | 21.11° C | 63% | 1012.7 hPa | 0 mm | - | - | - |
| 1787656508 | 21.11° C | 63% | 1012.9 hPa | 0 mm | - | - | - |
| 1787656200 | 21.11° C | 63% | 1012.7 hPa | 0 mm | - | - | - |
| 1787655908 | 20.56° C | 65% | 1013 hPa | 0 mm | - | - | - |
| 1787655610 | 20.56° C | 65% | 1012.9 hPa | 0 mm | - | - | - |
| 1787655308 | 21.11° C | 66% | 1013 hPa | 0 mm | - | - | - |
| 1787655009 | 21.11° C | 67% | 1013.2 hPa | 0 mm | - | - | - |
| 1787654708 | 20.56° C | 70% | 1013 hPa | 0 mm | - | - | - |
| 1787654409 | 20.56° C | 68% | 1013.2 hPa | 0 mm | - | - | - |
| 1787654108 | 20.56° C | 68% | 1013.2 hPa | 0 mm | - | - | - |
| 1787653810 | 20.56° C | 70% | 1013.2 hPa | 0 mm | - | - | - |
| 1787653508 | 21.11° C | 72% | 1013.3 hPa | 0 mm | - | - | - |
| 1787653199 | 20.56° C | 73% | 1013.3 hPa | 0 mm | - | - | - |
| 1787652900 | 20.56° C | 73% | 1013.3 hPa | 0 mm | - | - | - |
| 1787652599 | 20.56° C | 72% | 1013.3 hPa | 0 mm | - | - | - |
| 1787652299 | 20.56° C | 71% | 1013.4 hPa | 0 mm | - | - | - |
| 1787652000 | 20.56° C | 71% | 1013.4 hPa | 0 mm | - | - | - |
| 1787651700 | 20.56° C | 73% | 1013.4 hPa | 0 mm | - | - | - |
| 1787651400 | 20.56° C | 72% | 1013.4 hPa | 0 mm | - | - | - |
| 1787651108 | 20.56° C | 72% | 1013.3 hPa | 0 mm | - | - | - |
* Rain latest hour (hover to see other rain measurements)
** Current wind speed in m/s (hover to see current wind gust speed)